Location: Spring Creek
(38.2870°N, 100.2160°W)
Time: 06:09:42
(UTC+00:00)

Envisat - Visible Passes

Search period start: 28 May 2023 00:00
Search period end: 07 June 2023 00:00
Orbit: 763 x 765 km, 98.2° (Epoch: 27 May)

Date Brightness Start Highest point End Pass type
(mag) Time Alt. Az. Time Alt. Az. Time Alt. Az.
28 May 5.0 09:38:17 10° NE 09:42:21 24° E 09:46:23 10° SSE visible
29 May 3.0 10:39:18 10° N 10:44:24 84° WNW 10:49:28 10° SSW visible
30 May 4.1 10:02:25 10° NNE 10:07:13 41° E 10:11:59 10° S visible
31 May 5.4 09:26:24 10° NE 09:29:50 18° E 09:33:15 10° SE visible
01 Jun 3.2 10:26:54 10° NNE 10:31:59 75° ESE 10:37:02 10° S visible
02 Jun 4.6 09:50:13 10° NE 09:54:44 32° E 09:59:13 10° SSE visible
03 Jun 5.6 09:14:48 10° ENE 09:17:17 14° E 09:19:45 10° ESE visible
04 Jun 3.6 10:14:33 10° NNE 10:19:33 56° E 10:24:31 10° S visible
05 Jun 5.0 09:38:08 10° NE 09:42:14 24° E 09:46:18 10° SSE visible
06 Jun 3.0 10:39:10 10° N 10:44:16 83° WNW 10:49:20 10° SSW visible
